Theta_e
354 355 357 355 353 353 358 357 356 359 361 361 358 354 349 352 348 345 345 348 347 351 353 354 366 365 368 369 369 366 367 365 362 367 368 360 363 357 355 357 358 356 355 354 354 351 351 351 350 349 350 350 350 350 350 352 352 353 354 353 355 355 354 354 352 352 353 353 353 352 353 353 353 353
355 356 355 354 351 354 355 355 356 357 362 356 354 354 354 361 351 351 348 348 349 347 351 359 361 369 366 364 366 366 367 362 363 368 369 365 361 350 353 355 355 355 354 354 354 353 351 352 352 350 349 349 350 349 350 350 351 352 353 353 354 354 354 353 351 352 353 353 352 352 352 353 353 353
352 352 351 353 352 354 354 357 356 357 357 356 355 355 356 356 357 356 354 347 352 351 349 357 367 364 367 365 363 365 367 364 362 367 366 365 358 354 359 355 354 354 352 352 352 354 354 352 352 352 351 350 350 350 350 350 349 350 352 352 353 353 355 352 350 351 352 353 352 351 352 352 352 353
350 352 352 354 354 355 356 358 357 357 359 359 357 357 355 357 359 360 357 353 351 354 352 353 357 364 365 366 362 362 362 360 358 367 367 367 361 367 364 354 353 352 351 350 349 349 352 354 353 352 352 352 351 350 350 350 350 350 350 351 351 355 352 350 350 351 352 353 352 351 352 351 352 352
349 351 352 354 354 356 353 356 357 356 356 358 357 358 356 353 356 358 358 353 351 356 358 357 355 361 361 361 364 360 358 359 363 360 366 367 365 360 365 360 349 349 349 348 347 346 347 351 353 354 353 353 352 352 350 350 351 350 350 351 351 347 347 349 351 351 351 352 352 352 351 351 352 352
351 352 354 354 354 357 356 358 357 356 355 355 354 354 354 354 354 360 357 355 353 351 354 356 360 361 364 357 364 364 360 361 364 361 361 365 363 357 359 358 353 344 347 346 345 345 344 345 346 350 353 354 353 353 352 353 352 352 351 348 345 344 345 347 349 351 351 351 351 352 351 351 351 351
352 351 353 352 355 355 356 360 359 358 358 357 356 354 354 355 355 358 361 359 355 353 352 356 355 358 361 361 362 364 363 365 363 361 358 358 358 360 359 354 350 341 343 343 343 341 340 340 341 343 343 346 347 346 344 340 337 337 337 335 336 338 338 336 338 340 342 342 344 345 345 346 347 347
351 350 352 351 354 358 358 361 361 361 359 359 359 358 360 360 359 361 360 364 360 357 353 356 355 358 358 361 364 362 362 361 360 361 361 357 355 356 352 349 346 340 339 338 337 337 336 335 334 334 335 335 333 330 329 331 330 329 329 329 330 331 331 331 331 333 334 334 334 336 337 337 338 338
352 352 351 353 356 358 357 360 360 360 361 360 360 360 360 360 361 360 361 363 363 360 357 356 360 362 361 360 361 361 358 360 362 362 360 355 356 351 346 343 340 337 335 334 333 333 332 332 331 331 330 329 328 327 327 326 325 324 324 324 325 326 326 326 326 326 326 327 328 330 331 332 333 334
354 353 353 354 355 354 354 356 358 361 363 363 362 361 362 361 362 362 364 363 363 361 359 359 355 360 355 358 359 361 359 356 354 356 357 356 354 350 346 344 345 345 343 341 338 335 333 330 329 329 329 328 327 326 325 325 323 322 321 321 322 322 322 322 322 322 322 322 323 325 327 329 330 332
354 356 356 356 355 355 355 355 357 358 361 363 363 364 364 363 362 360 361 360 360 360 358 357 358 357 359 359 354 358 359 358 356 353 351 348 352 349 344 339 338 337 335 335 336 336 334 333 331 329 328 328 327 327 326 325 324 323 321 319 320 321 320 320 320 319 319 319 319 320 321 323 327 328
353 356 358 359 358 357 357 356 357 360 360 363 363 362 364 364 363 361 357 359 359 359 358 355 355 357 356 357 358 358 359 356 356 358 354 347 344 341 341 340 337 337 337 336 336 335 335 334 333 331 330 329 329 328 327 326 325 323 321 320 320 320 319 319 319 318 318 318 317 317 317 318 320 323
354 357 358 360 359 359 359 361 361 359 361 364 362 365 366 365 364 364 361 359 358 359 357 356 357 355 354 354 354 352 352 352 351 357 354 347 342 340 337 337 341 338 335 336 335 335 335 335 335 335 335 335 334 331 328 326 324 323 321 320 320 319 319 318 318 317 317 317 316 316 316 315 316 317
354 355 358 360 360 362 364 366 367 366 365 365 363 363 366 368 366 364 362 360 359 359 356 354 354 353 351 350 353 351 353 355 357 356 351 342 339 338 334 333 335 338 335 332 331 333 337 333 333 332 331 333 333 332 330 327 325 321 320 320 319 319 318 318 317 316 316 315 315 315 315 315 315 315
355 356 357 358 358 368 366 368 368 366 365 365 363 362 362 365 367 365 361 360 360 357 357 355 355 352 352 353 355 354 353 355 355 353 353 346 341 338 335 328 330 337 335 332 330 329 334 334 329 330 329 328 327 325 324 321 321 320 319 319 318 318 318 317 317 316 316 315 315 314 314 314 314 314
355 356 356 357 359 360 367 369 370 367 364 363 362 360 361 363 363 363 368 366 361 360 357 355 355 354 353 353 354 352 352 353 356 356 353 347 343 338 334 330 327 332 335 329 327 326 333 334 328 325 324 322 322 321 320 320 319 319 318 318 317 317 316 316 316 315 315 315 315 315 314 314 314 313
357 357 356 356 358 362 367 367 366 369 370 362 361 361 362 363 362 350 351 355 366 364 359 356 355 355 354 351 351 353 353 355 353 353 352 350 345 339 334 330 327 329 335 331 326 324 329 333 328 325 326 324 321 320 320 319 319 319 319 318 318 317 316 316 315 315 314 314 313 313 312 313 313 312
362 362 361 360 360 363 368 369 366 366 373 368 365 365 365 365 362 355 354 355 355 359 360 358 356 357 356 348 352 354 352 351 350 349 346 347 339 334 330 330 330 333 334 329 326 322 326 329 327 323 324 323 322 321 321 321 321 320 319 319 319 318 318 317 317 316 315 314 313 313 312 312 312 312
363 365 364 365 363 364 365 368 368 365 371 370 367 366 365 364 361 360 360 360 359 359 357 358 356 356 354 353 354 353 352 351 352 352 349 343 337 333 333 332 333 332 335 333 331 323 327 328 324 324 324 324 323 323 321 320 320 320 319 319 319 319 319 319 318 318 317 316 315 314 313 313 313 313
364 366 366 365 365 365 364 366 356 363 370 368 365 363 363 363 359 358 342 332 340 358 362 358 358 355 352 345 353 356 353 352 348 345 341 337 333 329 327 324 326 328 335 333 329 324 324 327 324 324 327 327 324 324 323 320 320 319 318 318 317 317 317 317 318 318 318 317 316 315 313 312 312 312
363 365 367 367 363 364 366 357 339 346 359 366 364 361 360 356 354 351 347 334 331 328 325 325 327 328 328 328 327 329 337 347 345 342 335 331 331 329 325 326 327 326 328 331 331 325 322 326 324 323 324 324 324 325 326 325 319 318 317 316 316 315 315 315 315 315 316 316 317 316 315 313 313 313
360 361 361 363 364 364 366 341 334 337 358 362 359 358 356 353 349 349 346 343 339 328 328 328 328 329 329 329 330 331 333 337 345 343 335 334 334 331 330 326 326 326 328 329 330 325 322 325 325 322 324 325 326 324 324 324 322 318 316 314 314 314 313 313 313 313 313 313 314 314 314 315 314 324
354 355 359 358 360 361 356 325 329 332 353 360 359 357 355 353 351 350 346 343 341 341 340 339 338 336 338 343 344 341 340 344 346 347 340 337 335 331 330 328 326 323 325 329 333 325 323 324 325 325 323 321 323 326 326 325 324 322 321 318 317 314 313 313 311 311 310 311 311 311 311 310 315 325
348 349 353 354 350 341 332 320 323 326 333 356 359 360 354 348 346 348 343 343 342 341 340 340 342 342 343 342 340 339 339 338 340 344 345 344 340 335 331 330 329 326 327 333 335 326 324 326 325 330 326 320 317 322 324 324 325 323 319 318 317 317 318 314 311 309 309 309 309 309 309 309 312 324
349 351 351 344 330 322 324 317 317 319 323 338 359 358 354 352 352 345 343 342 341 343 341 339 340 340 338 336 335 334 335 335 336 336 336 338 343 339 333 330 329 328 329 333 334 330 325 327 326 326 324 324 321 320 322 324 324 324 326 325 324 323 323 320 317 317 310 309 308 307 307 309 308 315
347 349 346 343 328 314 320 317 314 313 316 320 339 345 329 326 326 341 341 342 341 339 336 334 333 333 332 330 328 327 328 329 330 331 332 334 334 333 337 336 329 327 328 334 332 332 329 327 327 324 322 321 320 321 319 321 324 324 325 325 325 326 326 324 322 323 321 319 317 312 312 309 310 310
343 344 342 338 320 309 306 307 309 311 314 322 316 311 315 318 322 329 329 328 326 325 324 325 325 326 326 325 324 324 323 324 325 326 328 329 331 332 333 334 335 333 334 337 338 336 333 327 327 323 322 322 319 319 319 317 319 323 322 322 325 325 325 323 321 321 322 319 319 309 309 309 310 311
336 335 334 320 305 303 303 305 309 312 317 319 310 313 316 319 324 327 325 322 322 322 320 318 318 319 321 322 321 322 322 323 323 323 324 326 328 329 329 331 333 333 334 335 336 336 334 328 327 328 326 323 319 317 316 319 320 319 318 321 323 322 323 323 319 320 321 321 321 321 320 318 318 315
321 311 305 305 306 307 307 308 310 311 311 311 312 313 317 325 321 320 319 320 319 317 316 316 317 317 320 321 324 325 325 325 324 323 323 326 327 328 328 329 331 332 333 336 336 335 332 328 327 329 329 325 321 320 318 316 317 318 319 318 316 319 322 321 321 319 319 318 317 316 315 315 313 315
311 310 309 309 310 314 319 329 328 324 321 313 314 316 322 321 319 317 316 316 316 315 316 316 316 318 320 321 323 325 323 322 322 323 323 324 325 326 325 324 324 327 331 334 334 333 331 331 329 329 326 325 322 321 320 317 317 317 319 318 317 319 319 319 319 319 316 316 315 315 315 314 315 316
326 325 324 321 315 316 315 319 319 321 323 325 325 324 323 324 324 322 319 317 317 317 316 317 317 318 320 322 323 321 322 322 322 324 323 322 322 323 324 323 322 322 323 326 329 329 328 328 328 327 324 322 322 322 321 320 317 316 316 317 318 315 315 318 318 315 315 314 315 315 316 315 314 316
327 326 321 322 329 328 328 327 328 327 328 326 324 323 323 322 323 323 323 323 323 321 320 319 320 320 320 319 321 322 322 321 322 323 322 321 321 322 322 320 319 320 321 322 324 328 329 327 327 327 325 323 320 320 320 319 317 316 316 317 317 316 316 313 313 313 316 317 313 312 315 314 314 315
331 330 328 327 327 326 325 325 325 325 325 325 325 326 326 326 325 324 323 321 321 322 322 321 319 319 319 319 319 320 319 320 321 323 322 324 324 323 322 318 318 318 317 317 319 321 324 325 327 327 326 325 325 322 319 313 314 315 314 314 315 314 314 314 313 314 317 315 313 313 313 314 314 314
327 326 325 324 323 323 323 322 322 322 322 322 322 324 323 326 326 324 322 322 321 322 321 320 318 317 319 318 320 320 319 320 320 321 321 322 324 321 318 317 317 318 318 316 317 317 319 320 321 321 322 322 320 320 319 316 313 314 315 314 314 312 313 314 314 315 317 314 313 312 312 312 314 314
326 324 322 321 321 321 321 320 320 321 321 322 323 323 324 324 323 322 322 322 322 321 321 321 321 320 319 318 318 317 317 317 318 320 321 321 321 318 317 316 316 316 315 314 314 316 316 316 316 315 315 315 315 318 315 317 315 314 314 313 313 312 312 313 312 314 314 314 313 312 312 312 313 314
324 324 322 321 321 322 322 322 322 322 322 322 322 322 321 322 322 323 323 323 323 321 321 321 320 320 318 317 317 317 317 317 317 317 318 318 318 317 317 317 316 315 315 314 313 315 315 314 314 312 310 309 308 306 310 314 315 318 312 310 312 313 313 314 315 315 314 312 313 312 310 311 311 314
322 322 322 321 321 322 321 323 322 322 322 321 321 320 322 321 322 323 325 325 322 321 321 321 320 320 319 318 317 316 316 316 315 316 316 317 318 317 316 315 316 315 314 315 316 316 317 315 315 313 311 309 308 306 307 314 312 313 319 313 312 314 313 314 314 313 313 311 314 313 312 311 311 313
324 324 323 323 323 322 322 322 321 322 321 322 323 323 324 324 324 324 327 325 322 320 320 321 319 319 318 318 316 316 316 316 316 316 315 315 315 315 315 314 314 315 315 315 317 316 317 315 313 313 312 309 308 307 306 309 310 311 309 317 313 313 314 312 311 310 311 314 312 313 313 311 312 313
325 324 324 324 324 324 323 323 323 323 323 323 322 322 324 324 324 325 324 323 324 323 321 320 319 318 318 317 316 316 314 314 314 314 315 315 316 315 314 314 314 316 315 314 315 315 315 314 314 313 313 311 310 310 310 308 308 311 309 305 313 314 312 311 311 311 312 311 311 312 314 315 311 310
324 325 325 325 325 325 325 325 324 324 323 323 323 323 322 322 322 323 321 321 321 321 321 319 319 317 318 317 316 316 316 316 314 314 314 315 316 316 316 316 315 314 315 314 313 314 314 314 315 316 315 315 315 316 315 314 313 312 312 313 304 310 313 313 311 310 310 311 311 310 310 311 309 312
323 323 323 324 324 324 324 324 324 324 324 324 324 324 323 322 321 320 320 319 320 318 317 318 318 319 318 317 318 316 315 314 315 314 314 314 313 314 314 316 314 314 313 312 313 313 314 317 320 316 319 318 318 317 312 308 307 308 309 309 307 306 307 310 312 312 311 312 311 310 309 308 307 307
321 321 322 323 323 324 323 323 323 322 323 322 322 323 324 323 321 319 318 319 320 320 317 317 318 317 317 317 316 315 315 315 314 314 313 313 313 313 312 313 312 312 312 311 312 313 316 316 316 315 315 313 311 309 308 308 308 308 311 310 310 308 307 306 307 308 310 309 308 309 308 308 309 308
319 319 319 320 321 321 322 322 323 322 322 322 321 321 319 318 318 317 318 318 318 316 316 316 317 316 316 316 316 316 315 314 315 314 314 313 312 311 311 313 313 313 313 313 314 314 314 315 315 313 313 312 313 312 308 309 311 309 308 310 311 311 310 307 306 305 306 306 309 308 307 305 304 304
316 317 316 317 318 320 320 321 321 322 322 322 320 320 319 318 319 318 318 316 316 315 316 315 315 315 315 315 315 315 315 314 314 315 314 314 315 314 314 314 314 314 313 313 311 311 312 313 314 314 312 312 311 310 311 308 307 309 310 310 311 311 310 310 311 308 308 307 305 306 304 306 308 308
318 318 317 316 316 316 317 318 318 319 319 319 319 319 318 319 317 317 317 317 316 315 316 315 315 315 315 315 314 313 313 312 314 313 314 314 313 313 314 313 313 313 312 312 311 312 312 313 313 314 313 312 311 312 310 310 311 309 308 308 310 310 310 310 308 308 309 308 307 307 308 306 307 307
Wind_Speed
7 7 7 6 5 5 4 4 4 6 5 5 8 2 5 4 5 6 5 5 5 4 4 3 3 4 3 2 4 3 3 4 3 2 2 8 2 8 11 11 7 9 9 9 9 9 9 8 7 7 7 6 6 7 7 7 6 6 6 6 7 7 8 8 7 9 9 10 10 10 9 9 9 9
6 6 7 6 6 5 4 5 5 3 3 5 5 4 3 2 5 5 6 5 5 5 4 4 3 2 4 3 1 2 2 6 5 2 1 6 7 11 11 9 8 7 9 9 10 10 9 9 7 6 5 5 5 6 5 6 6 6 6 6 6 7 7 7 8 9 9 10 10 10 9 9 9 9
7 7 7 6 6 5 6 5 5 5 4 5 5 4 3 4 4 4 4 5 3 5 4 4 1 3 3 4 4 2 2 4 4 3 3 4 6 8 6 7 7 7 9 9 10 9 8 8 8 7 6 5 5 5 6 6 5 6 6 7 6 6 8 8 9 9 9 9 10 9 10 10 10 10
6 7 7 6 6 5 5 5 5 5 5 5 5 5 3 3 4 4 4 4 5 4 5 6 2 2 3 3 3 3 2 5 4 3 4 5 5 2 5 8 8 7 7 6 5 7 7 7 8 8 7 6 6 6 6 6 6 6 6 6 5 4 7 8 9 9 9 9 10 10 9 9 9 10
8 7 7 7 7 6 7 5 5 5 5 5 5 4 4 5 4 3 3 5 4 4 4 2 3 4 4 2 3 3 2 1 2 2 0 3 3 3 2 6 8 5 4 5 4 4 6 7 6 6 7 7 6 7 6 6 5 4 3 2 3 4 4 4 6 7 8 8 9 10 10 10 10 10
7 7 7 8 8 7 7 7 6 6 5 5 5 4 3 3 4 2 4 4 4 5 3 3 3 1 1 2 1 3 4 2 3 1 4 5 6 2 6 8 7 6 5 4 2 1 0 2 3 4 4 6 7 7 7 5 3 2 2 3 3 3 1 3 5 6 7 8 8 9 9 9 9 10
8 9 8 8 7 6 6 6 6 6 6 5 6 6 5 4 5 2 2 3 5 5 4 3 2 4 1 2 2 2 2 2 2 3 2 6 4 5 7 7 7 12 10 8 8 8 8 8 6 6 6 5 6 7 8 7 6 5 5 5 6 6 7 7 6 6 6 6 6 6 6 6 6 6
8 8 8 8 7 6 6 6 6 6 6 6 4 5 4 3 4 3 2 3 4 4 5 3 4 3 3 0 2 2 1 3 1 2 0 7 9 9 8 8 7 10 14 15 15 14 14 14 14 14 13 12 12 11 12 12 10 10 10 9 9 9 10 10 10 9 7 6 5 4 4 4 4 5
8 8 8 8 7 6 7 6 6 6 6 5 4 4 3 4 3 3 3 3 4 4 4 3 1 1 2 1 2 2 3 1 2 2 1 7 9 9 9 9 10 15 18 17 18 17 17 16 16 16 15 15 14 14 14 14 14 13 12 13 13 13 13 12 11 11 9 9 8 9 9 10 9 9
9 8 8 8 8 8 8 7 7 5 6 5 5 6 5 4 3 3 3 4 4 5 4 4 3 2 3 2 2 2 3 3 1 1 3 9 8 8 8 7 5 5 6 6 8 13 14 18 18 18 17 16 15 16 15 15 16 15 15 15 15 16 16 15 14 14 13 13 13 13 13 12 12 12
9 9 9 8 9 9 9 8 8 7 7 6 6 5 5 5 5 5 4 4 4 4 5 4 3 3 3 3 3 3 4 3 2 2 3 5 5 6 7 7 7 7 10 14 16 15 14 16 15 16 17 17 18 18 17 17 17 17 16 15 16 16 15 15 15 15 15 15 15 15 14 14 15 17
10 9 8 8 8 9 9 9 8 7 7 6 6 5 4 4 4 5 5 4 4 5 5 4 3 3 3 4 4 2 3 3 3 2 2 4 6 8 7 8 8 7 8 8 9 11 12 12 14 16 16 17 16 17 18 18 18 18 16 16 17 17 16 16 16 16 16 16 16 16 16 16 16 17
9 8 8 8 9 9 9 10 8 7 5 5 6 5 4 5 5 5 5 5 5 5 5 4 4 4 4 4 4 4 4 4 2 2 3 8 9 8 8 7 7 6 7 7 8 7 7 8 8 8 9 9 13 14 16 16 18 17 16 16 17 17 17 17 17 16 16 17 17 17 17 17 18 18
10 10 9 9 11 10 11 11 10 8 7 7 7 6 4 4 5 5 5 5 5 5 5 5 4 4 4 3 3 3 3 2 1 4 7 9 9 9 8 7 6 5 6 7 8 8 7 8 7 8 10 10 11 9 10 11 12 14 16 16 17 17 17 17 16 16 16 17 17 18 18 18 18 18
10 10 10 10 10 11 10 11 12 11 11 10 10 9 7 6 5 5 6 6 5 5 5 5 4 4 4 4 3 3 3 3 3 4 5 9 9 8 8 7 6 4 6 8 9 10 8 8 9 8 9 10 10 10 10 14 15 16 16 17 17 17 17 17 17 17 16 16 17 18 18 18 18 18
10 10 10 9 8 8 9 9 10 12 12 12 11 11 9 9 8 7 4 5 5 4 5 5 5 4 4 3 3 4 4 3 4 4 5 8 9 8 7 8 7 5 6 8 10 10 7 6 8 10 9 10 10 11 13 16 16 16 17 17 17 17 17 17 17 17 17 17 17 16 15 15 16 17
10 10 9 9 8 7 11 10 9 8 9 11 11 11 11 10 11 4 3 2 3 3 5 6 6 5 3 4 4 4 3 1 4 4 4 6 8 8 9 9 10 9 5 7 9 9 6 5 6 7 8 8 8 9 13 16 16 16 15 15 16 16 16 16 16 16 16 15 15 16 17 16 16 17
10 10 9 8 8 8 9 9 9 9 9 9 9 9 9 8 9 8 7 6 5 7 6 5 5 3 2 5 4 2 3 5 5 4 4 8 10 9 10 11 12 9 4 6 10 11 7 7 7 8 8 8 8 8 11 13 14 14 15 15 15 15 16 16 16 15 15 15 15 16 16 16 16 16
11 10 9 9 9 8 9 8 9 9 10 9 9 9 9 9 9 8 9 9 9 7 6 6 5 2 3 4 4 4 3 4 2 2 8 11 12 14 13 11 10 9 5 4 5 10 8 6 8 8 8 7 8 7 11 14 15 15 14 14 14 14 14 14 15 14 13 14 14 14 15 16 16 15
10 10 10 9 9 9 9 10 12 10 9 10 10 11 10 9 7 4 6 7 8 4 3 4 3 2 7 9 5 3 3 7 9 11 11 12 14 14 11 10 9 7 1 3 8 13 9 7 9 9 8 7 8 8 8 12 14 14 14 14 14 14 13 13 12 12 10 9 9 12 14 15 15 14
10 10 9 9 8 8 9 9 15 13 12 11 11 10 10 10 9 8 3 5 6 5 8 10 10 11 12 12 7 10 9 8 10 11 11 11 10 10 11 9 8 7 7 7 6 10 11 9 9 10 8 8 9 9 8 8 11 13 13 13 13 12 12 12 11 10 9 8 6 5 6 13 18 19
7 9 9 10 8 7 7 9 15 13 13 11 11 11 11 10 11 9 6 5 5 8 10 9 10 11 13 12 11 11 9 9 12 11 11 12 10 10 10 10 9 8 7 8 9 9 9 9 8 10 8 9 8 9 9 9 10 13 13 13 12 12 12 11 10 9 9 8 7 5 4 7 7 6
3 10 8 7 9 7 2 10 12 14 15 12 11 12 10 9 10 8 8 6 7 7 8 8 7 8 11 11 10 9 9 6 4 8 11 11 9 10 9 10 10 9 8 8 8 9 9 9 8 8 9 9 8 8 9 8 8 8 8 8 8 11 13 11 11 11 12 11 11 11 11 15 5 4
5 5 6 7 7 3 3 8 11 14 15 12 10 7 7 8 10 7 10 12 10 10 9 10 10 10 8 9 8 8 7 6 9 5 6 6 7 8 10 10 7 7 7 5 7 8 9 8 9 6 7 8 8 7 7 8 8 8 9 9 9 10 11 12 11 12 12 12 13 14 15 16 16 4
4 3 2 2 6 5 3 5 9 13 14 14 10 8 11 11 9 11 9 9 12 9 8 6 5 6 7 7 6 6 6 7 7 7 8 6 4 6 9 7 7 8 9 7 6 7 8 8 8 6 6 6 8 8 6 6 6 6 6 7 8 8 7 8 7 7 10 12 12 13 14 15 17 13
1 1 1 1 3 5 4 2 3 3 6 10 9 6 4 8 9 7 5 4 3 4 5 5 5 4 4 5 5 5 6 6 7 7 7 6 7 6 4 6 10 10 9 5 4 4 5 6 7 7 7 8 8 7 7 5 5 5 5 5 5 5 3 4 4 5 5 6 6 8 10 13 12 14
3 1 1 2 4 6 7 9 10 10 13 11 11 17 16 16 17 14 10 11 10 10 10 9 8 7 6 6 6 6 7 6 6 6 6 7 7 7 8 9 7 8 8 7 5 5 4 6 5 7 7 7 8 8 7 7 6 5 5 4 4 3 3 3 3 3 4 4 5 8 10 12 11 10
3 3 2 4 8 12 14 15 16 17 16 15 20 21 21 19 15 10 11 13 13 12 12 12 10 9 8 8 8 8 7 7 8 8 9 8 7 7 7 9 11 9 8 7 5 5 5 6 6 5 7 7 8 7 6 5 6 5 5 4 3 3 3 3 3 2 2 2 4 4 2 5 6 7
6 9 12 14 15 17 19 20 20 17 18 20 20 21 22 18 14 13 11 10 12 15 14 12 11 10 8 6 6 6 7 7 7 9 10 10 8 9 10 10 9 8 6 5 6 6 6 6 6 5 4 3 3 5 6 6 6 5 4 4 4 3 3 2 2 2 3 3 3 3 3 3 4 5
15 15 17 18 17 16 13 13 11 10 12 17 19 19 16 12 14 14 14 13 12 10 9 9 10 9 8 8 9 7 6 8 7 7 8 9 8 7 7 9 8 8 7 6 6 5 5 5 5 5 5 4 5 5 6 7 6 6 7 4 4 3 2 3 3 3 2 2 3 3 4 4 4 2
10 10 11 14 16 17 19 17 15 15 15 13 11 10 10 9 8 9 9 10 11 12 11 9 6 7 9 9 9 7 5 4 5 6 7 9 7 6 6 7 8 7 7 7 5 5 5 6 5 5 5 5 4 4 3 2 4 3 4 4 6 3 3 4 4 3 2 3 2 2 2 3 3 2
14 14 14 15 13 13 13 13 12 12 11 12 12 11 11 11 11 13 16 13 10 9 8 8 7 7 8 9 6 4 4 4 5 6 7 7 6 5 6 8 7 7 7 7 7 7 7 7 6 5 5 4 5 4 3 3 3 3 2 2 4 5 4 4 4 3 2 1 2 2 2 2 3 3
11 9 9 10 11 12 12 12 12 12 12 12 12 13 11 10 10 9 7 9 9 7 7 7 7 7 7 7 6 5 4 6 6 5 6 4 4 5 6 8 7 7 7 7 7 7 7 8 9 8 7 7 7 4 3 4 4 3 3 4 2 4 3 4 4 4 2 2 2 3 2 1 2 2
11 10 12 11 11 12 12 12 12 12 12 12 11 10 10 9 8 8 8 8 8 7 7 6 6 7 7 6 5 5 6 6 6 5 5 4 4 6 6 7 7 7 7 7 7 7 7 7 7 8 7 7 7 9 7 2 5 3 3 3 3 3 3 3 3 2 1 1 1 2 2 2 1 0
12 12 12 11 11 11 12 13 12 11 11 10 11 10 9 9 9 8 8 7 7 7 7 6 6 6 6 6 5 7 7 7 6 6 5 5 6 6 7 8 8 7 7 8 7 7 7 7 7 7 6 5 5 5 9 9 1 4 2 3 2 3 3 1 3 2 1 2 1 2 4 4 3 3
11 10 11 11 11 11 11 11 12 12 11 10 10 9 9 9 9 9 9 8 7 7 7 6 6 6 7 7 7 6 6 6 6 6 6 6 6 7 7 7 8 8 7 8 8 7 7 7 6 6 6 5 5 5 3 8 9 4 2 3 2 1 1 2 2 1 4 3 2 4 3 3 2 2
12 11 11 11 11 10 10 10 10 11 11 11 11 10 10 10 9 9 8 7 6 6 5 6 6 6 7 7 7 6 6 6 6 6 6 6 6 7 7 7 7 7 7 7 6 6 5 5 5 6 5 3 4 4 5 3 6 9 6 2 3 2 2 3 4 3 2 1 4 3 2 3 3 1
10 10 10 10 10 10 10 9 9 9 8 8 8 8 7 8 8 8 7 6 6 7 6 6 7 6 7 6 6 6 6 6 6 6 6 6 7 7 7 7 7 7 6 6 5 5 5 5 4 3 4 5 4 4 5 5 5 4 10 6 1 3 3 2 4 1 2 3 2 1 2 4 3 6
9 9 9 9 9 8 8 8 7 8 7 7 7 7 7 8 8 7 6 6 6 5 6 6 6 6 6 6 6 6 6 6 6 6 6 6 5 6 6 6 6 6 6 6 5 4 3 3 4 3 4 3 3 4 4 5 4 5 6 9 6 4 3 2 2 2 2 2 2 2 5 3 2 5
9 8 8 8 8 8 7 7 7 7 7 7 7 7 7 7 7 7 7 6 5 5 5 6 6 5 5 6 6 5 5 6 6 6 6 6 6 6 6 6 6 6 6 6 6 5 5 4 3 1 2 6 7 6 4 4 5 4 4 6 10 7 6 4 3 3 3 3 4 4 3 0 4 7
8 8 8 7 7 7 7 7 6 6 7 7 7 6 6 6 6 6 6 6 5 5 6 6 5 5 5 5 5 5 5 5 5 5 6 6 6 5 6 6 6 6 6 6 5 5 4 4 4 4 3 3 4 3 4 5 5 5 5 5 5 7 9 8 5 5 5 4 4 4 3 1 2 4
7 8 7 7 7 7 7 7 7 7 7 7 7 7 7 6 8 9 8 6 5 5 5 6 5 5 5 4 5 4 4 5 5 5 5 6 6 5 5 5 6 5 5 6 5 5 5 6 4 3 3 4 5 6 5 3 4 4 3 4 6 6 7 6 6 3 3 5 5 4 2 4 1 5
7 7 7 7 6 6 6 6 6 6 6 6 6 6 7 7 7 6 5 6 5 5 5 5 5 5 5 4 4 4 4 4 4 4 4 5 6 6 6 4 5 5 4 4 5 5 6 5 4 4 3 4 4 5 3 3 2 3 3 5 4 6 6 6 7 4 3 1 1 3 4 5 6 6
7 7 7 7 7 6 6 6 6 6 6 6 6 6 6 6 5 5 5 5 5 5 5 5 5 5 5 4 4 4 4 4 4 4 4 3 3 4 4 3 3 4 4 5 5 5 5 5 4 4 4 3 3 4 2 2 4 4 2 2 1 4 5 8 7 5 5 7 4 4 7 4 1 3
7 7 7 7 7 6 6 5 5 5 5 5 4 5 5 4 5 5 5 5 5 5 5 5 5 5 5 5 4 5 4 3 3 3 3 3 3 3 3 4 4 4 5 5 5 5 4 4 3 3 2 1 2 1 2 1 2 2 2 2 3 2 2 1 3 6 8 9 7 9 9 10 9 9
Wind_Direction
276 269 269 277 281 284 293 291 268 171 207 212 223 270 310 337 319 327 337 348 348 21 49 16 27 359 352 345 343 341 344 74 318 222 172 135 199 180 170 174 173 169 175 180 185 192 197 203 200 194 189 190 194 202 195 187 186 192 190 195 197 197 190 179 180 185 197 197 197 203 207 211 215 217
258 264 265 271 282 290 283 281 283 277 206 270 282 276 307 341 306 325 325 334 333 354 16 42 9 5 339 349 359 11 355 78 296 340 340 47 87 195 166 165 161 165 176 177 184 192 196 200 209 209 201 193 188 195 202 202 194 193 198 199 206 190 188 182 188 188 192 195 200 205 209 212 217 224
262 268 272 271 275 291 293 284 274 279 284 281 287 291 297 321 307 302 311 306 349 318 331 99 74 357 357 334 349 27 325 94 318 331 56 90 143 164 142 150 164 172 179 184 184 191 194 202 204 206 213 206 202 198 200 203 209 211 197 197 201 193 169 183 195 201 201 201 205 207 209 214 221 228
252 254 260 265 268 272 278 281 281 273 259 262 266 277 279 238 278 298 292 295 312 320 343 9 19 93 355 351 339 356 315 114 252 334 93 133 129 162 140 158 170 197 185 175 188 186 194 203 203 206 209 211 210 212 209 203 204 206 212 216 200 113 172 191 198 206 210 209 211 212 211 214 221 229
256 255 261 270 271 274 274 273 275 274 268 261 253 244 247 258 242 241 279 288 305 320 349 326 335 50 348 9 355 311 334 118 161 217 340 151 140 94 200 162 182 190 174 132 130 207 217 209 208 212 215 214 219 224 226 225 221 222 229 236 41 115 146 191 211 219 221 222 222 221 220 220 222 227
254 254 248 252 260 249 252 261 269 274 280 278 276 269 266 275 283 255 281 292 303 304 314 348 328 13 27 317 24 350 316 11 304 307 108 359 85 56 18 36 53 34 76 108 110 127 325 273 281 260 239 230 227 231 239 251 272 320 3 4 359 346 175 190 209 212 218 223 227 229 231 232 233 232
243 246 247 249 248 255 259 255 260 270 280 292 294 295 288 280 275 272 227 269 287 305 311 305 260 172 146 322 349 315 314 309 330 317 61 114 67 61 81 75 62 53 71 79 83 74 73 74 77 75 67 57 58 54 52 49 49 50 49 56 49 49 40 41 38 27 17 13 2 350 338 328 315 310
238 242 246 249 253 253 249 252 275 286 277 273 269 272 288 291 297 298 273 248 282 293 299 300 302 350 344 148 265 274 276 291 10 329 120 73 77 65 64 68 68 65 66 64 69 78 80 83 81 76 72 64 61 65 66 61 55 51 56 60 64 64 65 64 63 68 73 69 61 53 45 27 17 0
254 257 253 250 248 247 253 252 253 257 260 262 273 283 275 265 259 248 249 241 248 271 279 289 271 273 264 275 292 306 304 270 194 136 342 82 96 95 90 92 88 80 75 68 71 68 70 71 73 71 69 68 67 67 70 73 72 67 63 64 63 65 67 68 68 66 63 67 71 73 74 72 71 70
246 249 251 252 252 255 251 253 259 266 269 271 268 267 276 280 271 262 253 256 267 272 273 273 271 191 242 235 228 239 243 269 241 212 125 91 111 113 101 86 85 84 73 97 89 82 76 73 70 69 68 67 67 68 69 67 70 71 71 71 73 71 71 72 72 72 72 71 70 70 70 70 67 66
246 245 249 251 248 248 251 254 254 255 255 254 260 259 265 262 258 250 254 252 259 260 265 260 259 257 236 247 259 194 230 243 260 206 166 111 124 110 108 100 90 91 82 71 74 78 78 78 77 74 73 72 69 67 68 69 71 70 69 68 68 69 70 71 70 69 69 68 68 67 67 68 71 72
240 240 245 251 253 250 247 246 248 252 253 249 251 256 254 258 252 263 268 256 250 251 255 261 250 240 250 231 249 228 215 229 211 221 211 149 109 92 93 108 111 111 110 112 111 115 111 102 97 93 88 83 78 74 71 69 70 69 69 71 73 74 71 70 71 70 69 69 69 69 68 66 65 68
245 243 240 243 247 248 247 247 255 261 270 257 258 256 248 243 246 244 257 251 248 242 252 252 233 237 240 246 244 232 225 242 276 147 112 104 114 112 105 97 101 110 112 107 94 77 68 71 72 71 75 94 97 93 89 79 71 70 71 75 76 74 73 72 72 71 72 70 68 68 69 70 68 66
247 245 243 241 244 242 228 224 217 217 222 232 255 266 257 236 231 236 246 249 245 249 256 256 258 250 251 248 226 259 277 284 152 134 123 125 128 117 102 84 72 90 105 103 80 66 51 72 69 73 76 69 60 59 58 61 72 70 70 72 74 76 75 77 75 75 74 74 73 71 69 68 69 70
253 253 247 249 234 215 218 216 210 212 211 209 220 234 261 268 250 247 250 254 258 265 263 268 266 269 278 285 309 295 288 264 203 193 157 147 149 149 144 123 96 67 99 99 89 70 57 63 71 57 58 60 60 63 67 72 70 69 69 71 73 73 75 75 77 75 74 73 72 72 71 70 69 68
244 246 246 245 246 236 224 223 212 210 206 207 212 218 216 222 234 254 275 258 251 253 268 271 276 283 279 294 285 281 279 260 209 188 169 159 161 152 137 132 127 126 120 107 95 80 58 61 71 78 68 62 60 61 68 67 69 68 69 71 72 74 74 73 73 72 71 72 72 70 70 71 71 70
243 243 243 245 241 234 213 217 224 216 201 197 205 209 208 215 222 166 99 346 271 215 236 254 262 267 287 278 289 296 269 252 236 186 184 170 158 143 130 125 124 122 130 106 89 90 86 88 81 80 79 80 77 68 65 69 70 70 72 73 75 75 75 75 76 76 75 74 77 77 75 72 71 71
233 234 235 235 235 229 213 217 219 209 198 190 196 201 210 210 184 152 168 171 191 237 238 230 234 239 222 254 258 218 240 238 240 242 165 119 106 114 117 122 123 124 138 118 113 93 81 80 90 81 83 84 82 77 64 68 71 73 76 76 75 77 78 78 77 76 77 79 81 81 78 77 74 72
234 230 230 232 235 231 222 215 214 207 196 187 190 200 204 209 196 205 209 216 218 210 223 224 224 187 213 216 192 164 184 238 346 35 121 122 116 113 113 107 113 116 130 140 115 109 124 124 101 99 103 103 100 96 72 69 73 72 72 73 76 77 77 80 81 78 78 84 86 86 87 85 82 79
233 232 230 233 232 232 228 207 196 208 194 195 198 201 206 202 194 190 39 15 13 7 259 236 224 160 86 68 33 41 130 111 95 95 102 111 122 125 123 122 132 129 135 128 119 119 122 124 115 113 117 116 107 100 93 74 75 76 75 77 76 73 71 69 67 70 66 67 79 99 106 102 96 90
241 236 231 233 240 235 235 199 183 195 192 202 204 203 197 198 200 198 173 68 50 57 65 72 83 91 94 89 76 69 60 109 127 128 123 129 134 131 128 137 142 122 128 133 122 123 124 131 125 119 117 116 114 110 102 99 85 85 83 80 78 74 72 70 70 70 76 82 90 98 105 122 121 118
301 283 265 257 253 253 248 174 180 184 193 213 212 210 201 193 208 205 176 147 110 95 85 87 95 103 107 108 95 83 88 125 150 142 142 145 145 134 137 139 134 131 138 138 140 122 120 130 130 123 126 119 108 107 109 112 117 105 88 79 80 83 83 82 76 69 63 57 57 71 151 202 216 188
265 288 271 272 277 288 11 162 178 183 199 218 219 214 209 208 214 212 183 159 156 146 138 128 122 125 135 134 126 105 87 65 167 162 140 149 146 144 142 138 134 137 144 145 151 123 137 146 146 144 134 117 120 125 129 129 120 108 103 99 89 91 89 80 72 69 62 54 45 35 23 14 299 102
262 255 298 287 268 261 137 182 186 196 203 222 233 219 206 197 214 152 171 178 167 174 171 160 161 156 151 142 129 129 110 85 52 64 117 126 137 134 139 146 148 135 134 158 185 135 146 150 143 146 129 131 132 135 132 129 129 122 124 123 115 128 118 100 82 76 69 63 54 48 36 37 12 45
262 264 258 61 18 32 100 200 212 206 213 222 234 210 206 212 198 157 172 165 178 172 148 139 127 133 127 125 111 100 100 91 82 73 63 60 57 128 134 140 132 124 137 152 167 155 150 154 140 139 136 129 133 137 131 125 130 138 151 145 148 159 136 119 117 104 98 79 67 58 53 47 37 24
98 152 156 291 11 46 59 201 230 294 339 354 346 326 32 67 92 115 102 118 99 89 103 113 113 86 81 85 81 81 78 77 78 77 75 69 71 56 82 134 137 140 135 98 83 121 130 141 144 139 137 137 136 134 137 129 123 131 131 120 112 106 117 117 104 96 78 76 76 77 77 69 61 49
147 189 160 92 68 90 96 97 97 94 91 77 82 74 69 73 83 84 81 80 77 70 67 57 42 32 28 53 61 59 66 61 61 69 71 66 66 71 68 62 72 103 105 101 107 132 127 118 141 146 144 139 139 145 143 146 141 132 128 116 114 111 102 92 105 102 104 111 109 124 106 95 86 84
119 121 80 79 81 83 85 88 92 97 96 99 94 88 88 80 68 71 81 90 92 86 75 69 63 50 32 39 50 48 53 63 67 69 68 56 54 62 71 76 84 85 88 95 105 121 122 135 144 154 152 155 151 157 143 117 138 150 129 122 103 105 102 104 85 103 106 78 112 172 128 119 135 124
78 95 107 107 104 103 100 99 96 91 93 94 92 92 91 89 89 81 72 69 81 88 93 92 92 83 69 56 54 39 49 64 72 74 71 68 62 66 75 75 74 70 70 84 111 119 127 139 141 149 161 161 144 130 148 149 149 140 134 133 135 119 124 113 110 68 58 70 71 66 50 58 69 37
102 103 103 106 109 111 108 103 90 85 92 95 98 99 99 103 108 113 112 112 99 89 88 94 101 117 121 92 61 41 34 42 47 75 82 81 70 68 77 78 64 65 72 89 86 93 105 104 112 122 124 130 140 150 150 152 154 146 183 176 110 140 141 140 124 97 92 86 79 75 78 61 47 63
105 92 87 78 76 80 79 87 93 97 96 88 80 75 78 79 80 86 90 96 100 105 107 101 98 92 82 77 72 58 44 44 35 54 77 77 74 77 79 84 85 75 59 65 90 112 110 107 109 119 120 130 152 151 130 141 128 142 139 146 194 165 112 84 75 96 97 93 96 104 124 122 111 41
106 111 119 113 109 107 107 104 101 94 87 88 90 88 90 90 89 95 99 96 97 101 100 99 90 74 74 79 81 78 57 49 53 50 68 80 87 95 102 91 92 95 90 84 77 78 87 89 94 89 92 102 104 106 109 120 133 138 137 73 77 93 122 128 124 122 147 199 117 69 4 43 73 91
108 108 102 103 104 104 104 102 99 97 90 84 83 88 93 95 94 93 91 94 90 94 91 84 89 85 83 84 87 99 105 73 64 59 75 51 75 94 96 104 116 119 114 102 88 78 77 74 69 73 66 55 36 40 123 117 108 118 128 127 134 129 150 137 134 114 151 201 192 139 99 29 53 34
106 102 100 97 99 101 102 101 100 97 98 96 92 86 78 77 77 79 79 83 90 87 84 83 92 97 96 100 105 100 89 88 85 80 85 77 79 99 100 104 105 108 109 108 104 99 94 91 89 81 76 73 66 44 22 79 125 133 130 140 141 119 90 103 99 130 237 241 271 220 173 178 124 4
101 101 97 95 95 95 94 94 94 96 94 93 96 96 92 85 80 82 83 84 86 82 87 91 95 101 109 112 110 99 94 98 102 100 96 98 98 106 113 112 114 113 111 111 109 109 107 111 112 107 102 109 97 70 48 23 37 117 123 120 126 120 133 136 151 150 102 275 294 282 234 202 171 149
91 89 90 90 89 89 87 84 92 95 92 91 94 98 97 99 104 108 110 113 113 117 121 128 126 119 108 101 95 96 100 106 113 118 120 118 115 116 115 112 115 117 118 119 125 129 133 136 147 142 147 144 142 139 135 57 46 350 138 134 89 101 95 71 324 190 228 210 135 261 297 318 247 153
89 90 91 92 92 90 91 96 103 107 109 110 111 114 116 117 118 117 119 132 128 126 118 117 113 109 101 98 99 99 103 107 110 120 122 120 117 118 119 120 119 123 130 129 136 142 144 148 166 176 163 171 170 157 124 145 51 38 1 98 159 168 173 201 227 221 159 325 269 253 316 325 321 278
89 91 90 90 90 92 94 98 101 104 108 110 114 116 118 119 120 122 136 135 128 128 133 122 110 116 116 115 113 109 108 108 115 121 123 129 133 134 129 130 136 136 133 136 143 155 188 181 199 211 216 201 181 158 157 155 168 83 44 350 242 141 278 268 229 176 296 241 260 3 285 256 0 38
91 95 97 100 103 103 102 101 106 105 108 112 112 113 114 121 126 131 129 117 120 117 116 121 122 117 126 124 115 119 123 125 125 123 130 134 133 135 140 142 144 144 146 151 164 165 188 187 211 203 216 241 213 180 153 171 163 132 54 37 7 312 166 278 305 306 274 313 12 318 225 145 103 62
85 91 94 97 99 99 99 105 107 112 111 111 110 113 115 116 119 116 113 111 114 113 111 105 112 125 121 127 134 126 121 120 122 129 132 136 140 145 149 152 152 154 170 159 175 170 191 183 176 343 352 47 36 63 127 116 115 137 141 56 36 27 17 341 345 339 319 26 327 305 310 19 227 181
86 87 86 88 92 96 99 101 103 102 99 93 95 96 100 106 113 109 107 106 115 120 117 123 130 135 123 128 133 132 129 128 129 127 126 129 136 143 129 149 152 165 171 166 167 170 165 84 62 336 10 84 89 103 134 167 174 175 168 128 88 63 50 37 2 339 345 347 307 296 299 274 335 284
86 86 88 89 91 93 98 101 105 109 112 117 114 112 104 96 86 98 98 94 99 105 118 123 124 123 126 128 124 132 133 135 134 133 138 144 136 130 151 181 162 172 171 167 161 129 114 123 137 158 148 163 170 196 184 193 183 169 151 144 139 129 131 103 74 39 336 342 335 310 304 285 346 269
88 87 87 86 86 89 93 99 106 111 112 114 113 115 120 122 130 136 119 119 130 128 119 121 125 125 132 133 131 136 138 140 138 144 142 141 147 154 169 177 162 167 166 124 109 122 139 146 159 174 171 194 199 257 234 166 161 128 198 209 177 166 161 163 174 179 126 144 83 79 12 350 329 320
93 95 92 94 95 92 92 91 94 100 111 118 126 138 132 135 128 121 126 128 129 122 124 121 122 123 120 120 123 128 131 132 136 140 150 142 151 164 163 142 155 164 140 138 149 153 151 165 172 189 197 203 190 232 128 161 198 201 194 96 116 264 196 175 177 175 193 185 202 137 136 150 182 305
88 88 90 91 92 96 99 104 106 109 113 124 132 118 127 132 131 132 127 130 121 123 129 130 128 127 126 128 140 127 105 96 126 121 130 147 157 147 156 155 170 168 156 153 163 154 161 168 170 196 230 129 219 244 158 300 28 153 167 200 214 205 256 242 244 202 202 186 193 195 186 175 196 204